Theta_e
352 352 352 352 351 351 349 349 353 353 351 351 350 349 349 349 348 348 348 347 348 349 347 343 341 341 340 339 339 339 340 341 342 343 343 344 345 346 348 346 346 347 347 347 347 347 347 345 344 344 345 346 345 345 345 346 346 345 345 344 344 343 343 342 341 341 342 343 344 344 344 344 342 341 339 337 335 334 334 335 335 335 335 336 339
352 352 352 352 352 352 351 350 352 352 350 350 349 348 348 349 348 348 348 347 348 348 344 342 341 339 339 339 339 339 339 340 341 342 342 343 343 344 346 347 346 346 347 347 347 348 348 348 346 344 345 346 346 346 345 346 345 346 346 345 344 344 343 342 341 341 341 341 342 342 343 343 343 342 341 341 340 337 336 336 336 336 336 337 340
352 353 353 352 352 352 351 351 352 351 350 349 349 348 348 348 348 347 347 347 347 346 344 342 340 339 339 340 340 340 339 339 340 341 341 342 343 343 344 347 347 345 347 348 347 347 347 348 348 347 346 346 346 347 347 346 345 346 346 345 345 345 344 343 342 341 340 340 340 341 341 342 342 343 342 342 342 341 340 340 339 338 338 338 339
353 353 353 352 351 351 351 351 351 351 350 349 349 348 348 348 348 347 347 347 347 345 343 342 340 340 340 340 340 340 339 339 340 340 340 341 343 342 341 344 346 346 346 347 348 347 347 347 348 348 347 346 346 347 347 346 345 345 345 346 345 345 345 345 344 343 342 342 341 340 340 340 341 342 342 341 342 342 342 341 341 340 340 339 339
353 353 353 352 351 351 351 351 351 351 351 349 349 349 349 349 348 348 347 346 346 344 343 341 340 341 340 340 340 340 339 339 339 339 339 341 343 343 341 343 345 345 345 346 348 349 348 347 347 348 347 346 347 346 346 346 345 345 345 345 345 344 345 345 345 344 344 344 343 342 340 340 340 340 340 340 340 340 341 342 342 341 340 340 339
353 354 354 352 351 351 351 351 351 351 351 350 350 350 351 350 349 348 347 346 345 343 342 340 340 340 340 340 340 339 338 338 338 339 339 340 343 343 342 343 343 344 345 346 347 348 348 348 347 347 346 346 347 346 347 347 346 346 345 344 344 344 344 345 345 345 345 345 344 344 343 342 341 340 340 340 339 338 338 339 340 340 340 340 339
354 354 354 352 351 351 352 352 351 350 350 351 351 352 351 350 349 349 348 346 345 343 341 341 341 341 340 340 339 339 339 338 338 339 339 341 344 344 342 343 343 341 343 345 346 347 348 348 348 347 347 347 348 347 347 346 345 346 344 343 343 343 344 345 345 345 345 345 344 344 345 344 342 341 342 340 339 339 338 337 338 338 338 338 338
354 355 354 352 351 352 353 353 352 351 351 351 351 352 351 350 349 349 348 346 344 343 342 342 341 340 340 340 340 339 339 339 339 339 340 342 344 344 343 343 343 342 341 342 343 345 346 347 348 348 347 348 348 348 347 347 346 346 344 344 343 343 344 344 344 344 345 345 345 345 345 344 343 343 344 342 341 340 339 338 338 339 339 339 338
354 355 354 353 352 353 354 353 352 352 352 352 352 351 351 350 350 349 348 345 345 343 341 341 340 341 340 339 340 340 339 339 340 340 340 342 343 343 342 341 343 344 343 342 341 343 344 344 346 346 346 347 348 348 347 347 348 347 345 346 345 344 345 345 344 344 343 344 344 345 345 345 344 345 344 344 343 342 342 340 340 340 341 340 340
354 354 354 353 353 353 354 353 353 353 353 353 353 352 352 351 349 349 347 345 345 344 341 339 338 340 339 336 339 340 339 339 340 340 341 341 341 341 342 342 342 342 344 344 343 342 342 342 343 346 347 346 346 347 347 347 347 347 346 347 346 345 346 346 345 344 343 343 343 344 345 345 345 345 344 344 343 343 343 343 342 342 342 342 341
354 355 354 353 354 354 354 353 353 353 354 354 352 352 352 350 349 348 347 346 344 341 339 338 336 338 338 338 340 340 339 339 339 340 341 341 340 339 341 341 341 341 342 344 344 343 343 342 343 345 346 345 345 345 346 346 346 346 345 346 346 346 346 346 346 345 344 344 344 344 344 345 345 344 344 344 343 343 343 343 343 343 343 343 343
353 354 354 354 353 353 354 353 352 353 354 354 353 352 351 350 349 348 346 346 342 336 335 337 337 338 338 339 341 339 338 339 339 340 342 341 339 339 339 340 340 340 341 342 343 343 343 344 344 344 344 344 344 344 345 344 344 344 344 345 345 346 346 346 346 345 345 345 345 345 345 345 345 344 343 344 344 343 343 344 344 344 344 344 344
353 354 354 354 353 353 353 352 352 354 355 354 353 352 350 348 348 346 345 345 340 334 335 338 338 338 338 340 339 338 339 340 338 339 341 341 340 339 339 339 339 339 339 338 339 341 342 342 343 343 343 343 344 344 344 343 343 344 344 344 345 345 345 346 345 345 345 345 345 345 345 344 345 344 343 344 344 343 343 343 343 344 344 344 344
353 353 354 354 353 352 352 352 352 355 355 354 353 351 349 347 347 345 345 344 338 335 338 339 338 338 338 340 340 340 339 339 339 339 341 342 340 339 339 339 339 338 337 334 333 336 339 340 340 339 341 342 342 342 343 342 342 341 341 342 343 343 344 345 344 344 344 344 344 344 344 344 344 344 344 344 344 343 343 343 343 343 344 344 343
353 354 354 354 353 352 352 353 353 355 355 354 353 349 347 346 345 344 343 340 336 336 340 339 338 339 338 340 344 344 341 338 339 339 340 342 341 339 339 340 340 338 336 332 328 328 331 335 336 336 337 338 338 341 341 338 333 329 331 333 334 336 339 339 338 337 336 338 340 341 340 339 339 340 342 342 342 343 343 343 343 343 343 343 343
354 354 354 354 354 353 353 353 353 355 355 354 352 348 346 346 342 340 338 337 337 338 339 338 338 339 339 341 341 343 348 342 336 336 339 343 342 340 341 340 340 339 335 332 326 323 324 327 331 334 335 334 337 340 337 330 323 318 318 320 320 323 325 325 324 321 322 323 326 327 326 326 327 329 332 333 335 338 339 340 342 342 342 342 342
353 353 354 354 354 354 354 353 353 354 355 354 351 346 345 345 341 338 337 338 338 339 339 338 339 339 339 342 340 343 351 344 335 333 335 339 340 340 342 342 341 339 335 332 327 325 323 322 325 330 333 334 336 336 330 325 322 317 315 315 315 315 315 316 316 315 316 316 317 317 317 317 317 317 319 320 323 326 328 330 332 334 336 339 341
352 353 354 354 354 354 354 353 353 354 355 354 350 346 344 343 340 337 337 339 338 339 339 337 338 338 337 340 339 342 346 341 339 338 333 333 335 338 341 342 342 339 335 332 328 327 325 322 323 325 328 330 330 329 326 325 322 318 318 319 320 318 315 315 316 318 319 320 320 320 319 319 317 316 315 315 316 317 317 318 320 321 323 327 330
352 353 354 354 354 354 354 353 353 353 354 353 348 345 343 341 338 336 337 338 338 339 339 337 335 335 335 337 336 338 338 337 340 339 336 334 331 334 339 342 343 338 334 332 328 327 327 325 325 325 326 327 326 325 326 325 324 323 323 323 325 325 322 321 322 324 325 326 325 326 325 324 322 320 319 317 316 315 315 315 315 316 316 317 319
353 353 353 354 354 355 355 354 353 354 354 351 346 343 341 338 337 337 339 339 338 339 339 338 335 333 333 335 336 337 336 335 336 335 338 339 333 332 336 340 343 339 334 332 328 328 328 327 328 328 328 328 327 327 327 326 326 326 326 325 326 327 327 327 327 327 328 328 328 328 328 326 325 323 322 320 318 317 316 316 316 316 316 316 316
354 353 354 354 355 355 355 354 353 354 354 349 344 342 340 337 336 337 340 340 338 339 339 338 337 334 332 334 337 336 334 334 334 332 335 338 336 334 332 334 338 338 335 332 329 328 328 329 329 329 329 328 328 328 328 328 328 327 328 328 327 328 328 328 328 328 329 328 329 329 329 327 326 325 324 322 322 320 319 317 316 316 316 316 316
354 354 354 355 355 356 355 354 353 354 352 348 344 342 339 337 337 338 339 340 339 338 338 338 337 335 333 335 337 335 332 332 333 332 331 331 334 334 330 329 332 333 334 333 330 329 328 329 329 329 329 329 328 329 329 329 328 328 328 328 328 328 329 329 328 329 329 329 329 329 329 328 326 326 326 325 325 324 324 322 319 317 316 316 317
355 355 355 355 356 356 355 354 353 352 349 345 343 342 339 337 338 338 339 340 340 338 337 338 338 337 335 336 336 334 333 332 331 331 331 330 334 334 330 329 330 329 331 331 330 329 328 329 329 329 329 329 329 329 329 329 329 329 329 328 329 329 329 329 329 329 330 329 329 329 330 329 328 328 328 328 328 328 327 326 323 320 318 316 316
355 355 354 355 356 356 355 354 352 349 347 344 342 340 339 338 338 338 339 339 340 338 336 337 339 337 336 336 336 335 334 333 331 331 330 331 333 333 331 332 332 330 329 329 330 329 328 329 330 329 329 329 329 329 329 329 329 329 329 329 329 329 329 329 329 330 330 329 329 329 329 329 329 330 330 330 330 329 329 328 327 324 321 318 317
355 354 354 355 355 355 355 354 351 347 344 343 341 340 338 339 338 338 340 339 339 338 336 336 338 337 337 337 336 336 335 334 332 331 331 330 330 332 332 333 333 332 332 330 330 329 328 328 330 330 329 329 329 329 330 329 329 329 329 329 329 329 330 330 330 330 330 330 330 330 329 330 330 330 330 331 330 330 330 329 329 328 326 324 321
355 354 353 354 355 354 354 354 351 346 342 340 340 340 338 339 338 337 339 339 339 339 336 336 337 337 337 337 337 336 335 334 333 333 333 332 331 331 333 334 333 333 334 333 332 331 330 329 330 331 330 330 330 330 330 330 330 330 329 329 330 330 330 330 330 330 330 330 330 330 330 330 330 330 330 331 330 331 330 330 330 329 329 328 327
354 353 353 354 354 354 353 353 351 346 343 341 340 339 338 339 337 336 338 339 339 340 338 335 336 337 337 337 337 336 334 333 333 334 334 332 331 331 333 337 337 334 333 334 335 334 333 332 332 332 332 332 331 331 331 330 330 330 330 330 330 330 330 330 330 330 330 330 330 330 330 330 331 330 330 330 330 330 330 330 330 330 330 330 329
354 353 353 354 354 354 353 352 350 346 344 343 342 340 337 336 336 337 339 340 340 339 337 334 334 336 337 337 336 334 333 334 334 334 334 332 332 331 331 333 337 339 338 337 336 334 334 334 333 333 332 331 331 332 332 332 331 331 330 330 331 330 331 331 330 331 330 330 330 330 331 331 331 330 330 330 330 330 330 330 331 330 330 329 329
353 353 354 354 353 353 353 352 350 348 346 345 344 342 339 336 335 336 339 340 340 337 335 333 333 335 336 336 336 335 334 335 334 334 334 332 332 332 332 330 333 340 343 343 339 333 332 334 332 333 332 330 331 332 332 332 331 331 330 331 331 331 331 331 331 331 331 331 331 331 331 331 331 331 330 330 331 331 331 331 331 331 330 330 329
353 353 354 354 354 353 353 352 350 349 347 346 346 344 342 340 337 336 338 340 339 336 334 334 333 334 335 335 335 335 335 336 334 334 333 333 332 331 332 331 331 334 337 341 341 333 330 333 333 332 332 331 331 331 332 331 331 331 331 331 331 331 331 330 331 331 331 331 331 331 331 331 331 331 330 330 331 331 331 331 331 331 331 330 330
353 354 354 354 354 353 352 351 350 350 348 347 346 346 345 343 340 338 338 339 339 336 336 336 334 334 334 335 335 335 336 336 335 335 334 333 333 332 332 332 332 333 331 333 337 334 330 332 333 332 332 331 331 331 331 332 332 332 331 330 330 329 329 330 330 331 331 331 331 331 331 331 330 330 330 329 330 330 330 330 330 331 331 331 330
353 353 354 354 353 353 353 352 351 350 349 347 346 346 346 344 343 340 339 339 339 337 336 337 336 335 334 334 335 335 336 336 335 334 334 334 334 333 333 333 333 333 331 330 333 333 331 331 332 332 332 332 332 332 331 331 330 330 328 328 327 328 328 329 329 330 330 330 330 330 330 330 330 329 329 329 329 329 329 330 330 330 330 330 330
354 354 354 354 353 353 353 352 351 350 349 347 346 346 346 345 343 340 339 339 338 337 337 337 338 337 336 335 335 336 336 336 335 335 334 334 334 334 334 334 333 333 333 332 332 331 330 330 331 331 332 333 332 330 329 329 328 327 328 328 328 328 328 328 328 328 328 328 328 328 328 329 329 329 329 329 329 329 329 329 329 329 329 328 329
354 354 353 353 353 353 353 352 351 350 349 348 346 345 345 344 342 339 338 339 338 337 337 337 338 337 337 335 334 335 336 336 335 335 335 333 333 334 334 334 334 333 333 333 333 332 331 330 330 330 331 331 331 329 328 328 328 328 329 329 329 329 329 329 329 328 328 328 328 328 328 328 328 329 329 329 329 329 330 330 329 329 328 328 328
354 353 353 353 353 352 352 351 351 350 350 349 347 345 344 343 342 340 339 339 338 338 337 338 338 337 336 335 334 334 336 336 336 335 335 333 333 334 334 334 335 334 334 333 333 333 333 332 331 331 330 330 330 329 329 329 330 330 331 331 331 331 330 330 329 329 329 328 328 328 328 328 328 328 328 329 329 330 330 329 329 328 328 328 327
354 353 353 353 352 352 351 351 351 350 350 349 348 346 344 343 343 341 340 339 338 338 337 337 338 337 336 336 335 335 335 336 336 336 335 334 333 334 335 335 335 334 334 334 334 334 334 334 333 332 331 331 330 330 330 331 331 332 332 333 333 332 331 330 330 329 329 328 327 327 327 328 328 328 327 328 328 328 328 327 326 326 326 325 325
354 354 353 352 352 351 351 350 350 350 350 349 348 347 345 344 344 343 341 339 339 338 337 337 338 337 337 337 337 336 336 336 336 337 336 335 334 334 334 334 335 335 334 334 334 334 335 335 334 333 333 332 332 331 331 332 333 333 333 333 333 333 332 331 330 329 329 328 327 325 325 326 327 327 327 327 327 327 325 323 322 322 323 323 324
354 354 353 352 352 351 351 351 350 350 350 349 348 348 347 345 345 343 341 339 339 338 338 338 338 338 337 338 337 337 336 336 336 336 336 335 335 334 334 334 334 335 335 335 334 334 334 335 335 334 333 333 333 332 333 333 333 333 333 332 332 333 333 332 331 330 329 328 327 325 325 325 326 326 326 327 326 325 322 320 319 321 323 323 324
355 354 353 352 352 351 351 351 350 350 350 349 349 348 347 345 344 343 341 340 339 339 338 338 338 338 338 338 338 337 337 336 336 336 336 336 335 335 334 334 334 335 335 335 334 334 334 334 334 334 333 333 333 332 333 333 334 333 333 332 332 332 332 332 331 330 329 328 327 326 325 325 324 323 323 323 322 321 319 317 318 319 320 320 320
355 354 354 353 352 352 351 351 350 350 349 349 349 348 347 345 343 342 341 340 340 339 339 338 337 338 338 338 337 337 337 337 337 336 336 335 335 335 334 334 334 335 335 335 335 334 334 334 334 333 333 333 332 331 332 333 333 332 332 332 332 332 332 331 330 329 329 328 328 327 325 324 323 322 321 319 318 318 318 318 318 318 318 318 318
355 354 354 354 353 352 352 351 351 350 350 349 349 348 347 345 343 342 341 341 341 340 339 339 338 338 338 338 337 336 336 336 337 337 336 336 336 335 335 334 335 335 336 335 334 334 333 334 333 333 333 333 332 331 332 333 332 331 331 331 331 331 331 330 330 329 328 328 328 326 325 324 323 322 320 318 318 318 319 318 318 318 319 319 319
355 355 354 354 353 353 352 351 351 350 350 349 349 348 347 345 344 343 342 342 341 341 340 339 339 338 338 338 337 337 336 336 336 336 336 336 336 336 336 335 335 336 336 335 335 334 333 333 333 333 332 333 333 333 332 332 331 331 331 331 330 330 329 329 329 328 328 328 328 326 325 324 323 322 320 318 318 318 319 319 318 319 319 319 319
356 355 354 354 354 353 353 352 351 350 350 349 349 348 347 346 345 344 343 342 342 342 341 340 339 338 338 337 337 337 337 337 336 336 336 337 336 336 336 335 335 335 335 335 335 334 333 333 333 332 333 332 333 332 332 332 332 332 331 331 330 329 329 328 328 328 328 328 328 327 325 324 322 321 320 319 319 319 319 320 319 319 319 319 318
356 355 355 354 354 354 353 352 352 351 350 350 349 348 347 346 345 345 344 343 342 342 341 341 340 339 338 338 338 338 338 338 338 337 337 337 337 337 336 336 336 335 335 335 334 333 333 333 333 333 332 332 332 332 332 332 332 332 331 331 330 329 329 328 328 328 329 329 328 326 325 322 321 320 320 320 320 320 320 320 320 320 319 317 317
356 356 355 355 355 354 354 353 353 352 351 350 349 349 347 347 346 345 345 344 343 343 342 342 341 339 338 338 338 338 338 338 338 338 338 338 338 338 337 337 337 336 336 336 334 333 332 332 332 332 332 331 331 331 332 333 333 332 331 331 330 330 329 328 328 329 329 329 327 324 322 321 320 320 320 320 320 320 320 320 320 319 318 317 316
356 356 356 355 355 354 354 353 353 352 352 351 350 349 348 347 347 346 346 344 344 343 342 342 342 340 339 339 338 338 338 338 338 338 338 339 339 338 338 338 338 337 337 336 334 334 333 332 332 332 331 330 330 331 333 333 333 332 331 331 330 329 329 328 328 328 327 326 324 321 320 320 321 321 320 320 320 320 319 319 319 318 317 315 314
357 356 355 355 355 355 354 354 353 353 352 351 350 349 348 348 348 347 346 345 344 343 343 343 342 341 340 339 339 338 338 338 338 337 338 338 338 339 339 338 338 338 337 337 336 334 333 332 332 332 330 329 330 332 332 331 331 331 330 329 328 327 326 326 326 325 324 323 322 320 320 320 321 320 320 319 319 318 318 317 316 313 312 311 311
357 356 356 356 356 355 354 354 353 353 353 352 351 350 349 349 348 347 346 345 344 343 343 342 342 341 340 339 339 338 338 338 338 338 338 338 338 338 338 338 338 337 337 337 336 335 332 331 332 331 329 330 332 333 331 330 329 328 326 325 324 323 323 323 322 322 322 321 321 320 319 320 319 319 318 317 315 314 313 311 310 309 309 311 312
357 356 356 356 355 355 355 354 354 354 353 352 352 351 351 350 349 348 346 345 343 343 343 343 342 341 340 340 339 339 339 339 339 339 338 338 338 337 337 337 336 335 334 334 333 332 332 331 331 329 330 332 333 331 328 327 327 325 323 322 321 322 322 321 321 321 320 318 317 317 318 319 317 316 315 313 311 310 309 308 308 310 312 312 312
357 356 356 356 355 356 355 354 354 354 353 353 352 352 352 351 350 348 347 345 343 343 343 342 341 341 341 340 340 339 339 339 339 338 338 338 338 337 335 335 334 333 332 330 329 330 331 330 330 330 332 332 330 328 327 326 325 324 322 321 320 321 321 320 319 318 317 315 314 315 317 316 314 313 312 311 310 309 308 308 309 310 311 311 311
357 356 356 356 355 355 355 355 355 354 353 353 352 352 352 351 351 349 347 345 343 343 342 341 341 340 340 340 339 339 339 338 338 338 338 337 337 336 334 333 331 331 331 330 330 330 329 328 330 331 332 330 328 327 327 325 323 322 321 320 319 318 318 317 316 316 315 314 312 312 314 313 312 311 310 310 311 310 309 309 309 310 309 309 310
Wind_Speed
14 13 12 12 12 11 10 10 10 9 8 8 7 8 8 7 6 6 5 5 5 4 3 2 3 4 4 4 4 4 6 7 8 8 7 7 7 7 7 7 8 11 13 13 13 13 12 12 12 12 12 11 11 11 11 11 11 11 11 10 10 9 10 10 10 10 9 9 9 9 9 9 9 9 9 9 9 8 8 8 8 8 7 7 7
14 13 13 13 13 12 12 12 12 10 10 9 8 8 8 7 7 6 6 6 6 6 4 3 3 3 4 5 5 3 3 5 8 9 8 8 7 6 6 7 8 10 12 13 13 13 13 12 12 12 11 11 11 11 11 12 12 11 11 11 10 10 10 10 11 11 11 11 11 11 10 10 10 10 10 10 10 10 10 10 9 9 9 9 8
15 14 14 14 14 14 13 13 13 12 10 10 9 9 8 8 7 7 7 6 6 6 4 4 4 3 4 4 4 3 2 4 6 7 9 9 8 7 6 7 8 8 11 12 13 14 13 12 12 11 11 11 11 11 11 12 12 12 11 11 11 11 12 12 11 11 12 12 12 12 11 11 11 11 11 11 10 11 11 11 10 10 10 10 10
15 14 14 15 15 15 15 14 14 13 11 10 10 9 8 8 8 7 7 5 5 5 3 4 5 4 3 3 2 1 1 2 3 4 8 10 10 8 7 7 7 7 9 11 12 13 12 12 12 12 12 12 12 11 12 13 13 12 12 12 12 13 13 12 12 12 12 12 12 12 12 12 12 12 12 11 11 11 12 12 12 12 11 11 11
15 15 15 16 16 16 15 15 14 13 12 11 10 10 9 8 8 8 7 5 4 4 3 5 4 1 2 2 1 1 1 2 2 3 7 11 11 9 7 7 7 7 7 8 10 11 11 12 13 13 12 13 12 12 13 13 12 12 12 13 14 13 13 13 13 13 13 13 13 13 13 12 12 12 12 12 12 12 12 12 12 12 13 13 13
15 15 15 16 17 16 16 15 13 13 12 12 11 10 10 9 9 9 8 6 4 4 4 5 3 0 2 3 3 2 2 4 4 3 7 10 11 10 7 7 7 6 6 7 9 9 9 10 12 13 13 13 12 12 13 13 13 12 12 14 14 13 14 14 14 14 14 13 13 13 13 14 14 13 13 13 13 13 13 13 13 14 14 14 14
16 15 15 16 17 17 16 14 12 12 12 12 12 11 11 10 9 8 8 7 4 3 4 6 4 1 4 4 3 3 3 5 6 5 7 9 9 9 7 7 7 6 6 6 8 8 8 9 10 11 12 12 12 12 12 12 12 12 13 15 15 14 14 14 15 15 15 14 14 14 14 14 15 14 14 15 15 16 16 15 15 15 15 15 15
18 17 16 16 16 17 16 13 12 12 12 12 12 12 12 11 9 8 8 7 5 4 4 5 5 2 3 3 1 1 3 5 6 7 8 8 8 8 8 8 7 6 6 6 7 7 8 8 9 9 10 11 11 12 12 12 11 12 13 13 15 15 14 15 16 15 15 15 15 15 15 15 15 14 14 15 17 18 18 16 16 16 16 16 16
20 19 18 17 17 17 16 14 12 12 12 12 13 13 12 11 9 9 8 7 6 4 3 4 5 5 4 2 2 1 3 4 5 7 9 9 9 9 9 9 8 8 8 7 7 7 7 7 8 8 8 9 9 9 10 11 11 12 12 12 13 14 14 14 16 16 16 16 16 16 16 16 16 13 13 16 18 19 19 18 17 17 18 18 16
21 22 21 19 18 18 17 15 13 13 13 13 13 13 12 10 10 9 8 8 6 5 4 4 4 5 5 5 6 3 4 5 5 8 11 11 10 10 9 9 9 8 9 9 8 7 7 7 7 7 8 7 7 7 7 8 8 9 10 10 11 12 13 14 14 16 16 15 16 16 16 16 15 13 14 18 19 19 19 19 19 19 19 18 17
22 23 22 21 20 19 17 16 15 14 14 14 13 13 12 11 11 10 10 8 6 5 6 4 3 4 5 6 7 4 4 5 5 7 12 13 12 11 10 9 9 8 8 9 9 8 7 7 7 7 8 7 7 6 6 6 5 6 7 7 8 9 10 11 12 13 14 13 14 15 15 15 14 13 16 19 19 19 19 19 19 19 19 18 17
22 23 22 22 21 20 19 17 16 15 15 15 14 13 12 12 12 11 10 9 6 5 6 4 3 4 6 7 6 3 3 4 5 8 12 13 12 12 11 10 9 8 8 7 8 7 7 6 6 6 7 7 7 6 6 6 5 5 5 6 6 6 7 8 9 10 10 10 11 13 14 14 13 13 15 17 18 19 19 19 19 19 18 16 15
22 23 23 22 21 21 20 19 17 16 16 16 14 12 12 12 12 11 11 9 7 7 6 4 4 4 6 7 7 4 2 3 5 7 12 14 13 12 11 11 10 8 8 7 6 6 6 5 4 5 5 6 6 6 6 6 5 5 5 5 5 5 5 5 5 6 7 8 9 10 11 11 11 12 14 15 16 18 19 19 19 18 16 15 15
23 23 23 22 21 21 21 20 18 17 17 15 13 12 12 12 12 12 11 9 7 7 7 5 5 6 5 4 4 4 2 3 5 7 13 16 14 13 11 11 11 9 8 6 5 5 5 5 5 4 5 4 4 4 3 3 3 3 4 4 4 4 4 3 4 4 5 5 6 7 7 7 7 8 10 12 13 15 16 17 18 17 15 14 16
24 24 24 23 21 21 20 20 19 18 17 15 14 13 14 14 13 12 11 10 9 8 9 8 7 6 4 2 1 2 1 2 5 7 14 18 16 14 13 12 12 9 8 5 4 4 4 4 4 4 4 3 3 3 2 1 1 1 1 1 2 2 3 3 3 3 3 4 5 5 5 5 4 4 6 8 8 8 10 11 12 13 14 15 17
26 26 25 24 22 22 21 20 19 18 18 17 15 16 16 15 13 12 11 11 10 8 9 10 9 7 4 1 0 2 0 0 4 6 13 19 17 16 15 14 13 11 9 6 4 3 2 3 3 4 4 3 3 4 2 1 2 2 3 2 2 1 1 1 1 0 1 1 2 2 3 3 3 3 4 5 6 6 7 8 7 9 11 12 13
26 27 26 25 24 23 21 20 19 18 19 18 17 17 17 16 14 13 12 12 10 8 9 10 11 10 6 2 1 1 2 2 4 4 8 14 15 16 16 16 15 13 10 7 5 4 2 2 3 4 4 2 2 3 2 2 2 2 3 3 3 2 2 2 2 3 3 3 3 3 3 3 2 2 2 3 3 4 5 6 6 7 9 9 9
25 27 27 25 24 23 22 21 19 19 19 18 18 18 17 15 15 14 13 12 10 9 10 10 10 11 9 6 3 2 4 4 3 2 4 7 9 14 17 17 16 14 11 8 6 5 4 4 3 3 3 2 1 1 1 2 2 3 3 4 4 4 3 3 4 4 5 5 5 5 5 5 4 4 3 3 3 3 4 4 5 5 7 7 7
26 26 26 26 24 24 23 21 20 20 19 19 19 19 16 15 15 15 14 13 12 11 11 10 9 9 9 8 5 4 9 8 4 4 3 2 6 9 14 18 18 16 13 10 8 6 5 5 4 4 3 2 1 0 0 1 2 2 2 2 4 5 5 4 5 5 6 7 7 8 8 7 6 5 5 5 5 5 5 5 5 5 5 6 6
27 27 26 25 24 24 23 21 21 20 20 20 21 18 15 14 15 15 15 14 13 13 13 11 10 9 9 8 4 5 10 9 8 9 5 2 4 5 9 16 19 18 15 12 10 7 5 5 5 4 4 4 3 1 1 0 1 1 1 1 2 4 5 5 6 6 7 8 8 10 11 10 8 6 6 6 6 6 6 6 7 7 7 7 6
27 28 26 25 24 24 23 22 22 21 21 22 21 19 16 16 17 17 16 15 14 14 14 14 12 10 11 10 6 6 7 6 10 11 6 4 4 3 7 11 14 18 18 14 12 10 7 6 6 6 5 4 4 3 1 1 2 2 2 3 4 5 6 7 7 7 8 8 9 10 11 11 10 8 7 6 6 7 7 7 7 8 8 8 7
29 29 27 25 24 24 24 23 23 22 23 24 22 19 18 18 18 17 17 16 16 15 15 16 13 11 12 12 10 8 7 4 7 8 5 5 4 4 9 11 10 15 19 18 15 13 10 9 9 9 8 7 6 6 5 4 4 4 5 5 6 7 8 8 8 9 9 10 10 10 11 11 10 9 8 7 7 7 7 8 8 9 9 9 8
30 29 28 26 24 24 24 24 24 23 24 25 23 21 21 20 19 18 18 18 17 16 16 17 16 14 14 14 13 11 9 7 8 10 7 5 4 4 8 12 12 15 19 19 17 15 13 12 11 11 10 9 9 8 8 7 7 7 7 8 9 9 10 10 10 10 11 11 12 12 12 12 10 10 10 10 9 9 9 9 9 9 9 9 9
31 31 29 27 25 25 26 25 24 25 26 25 23 23 23 22 21 20 20 20 19 18 17 18 18 17 17 16 14 13 11 9 10 13 11 10 9 7 7 9 9 12 15 18 19 18 16 14 14 14 13 12 11 11 10 10 10 10 10 10 11 11 11 12 12 11 11 12 12 13 14 13 11 11 12 12 12 12 12 11 11 10 10 10 10
33 33 31 29 27 27 28 27 26 26 27 25 24 24 24 24 22 21 21 21 20 19 19 20 20 19 19 18 15 14 13 11 10 11 11 13 14 9 6 5 4 7 9 13 17 19 19 18 16 16 16 16 14 13 13 13 13 12 12 12 12 13 13 13 13 13 13 12 12 13 13 13 12 12 12 13 14 14 14 14 13 12 12 12 12
36 35 33 31 29 29 29 29 28 27 27 26 25 25 25 25 24 23 23 23 22 21 20 21 21 21 19 19 17 16 15 13 11 10 10 13 16 13 9 3 2 4 5 8 11 13 16 17 17 17 18 18 17 16 15 15 15 14 14 14 13 13 14 14 14 14 14 13 13 13 13 14 13 13 14 14 15 15 15 15 15 15 15 14 14
37 35 33 32 30 30 30 30 29 28 28 27 26 25 26 26 26 25 25 24 23 23 22 22 23 22 21 20 18 17 16 16 14 12 12 14 16 17 14 6 1 2 2 4 7 10 13 13 14 15 15 15 17 18 18 17 16 15 14 14 14 14 14 15 15 15 15 14 14 14 14 14 14 15 15 15 16 16 16 16 16 16 16 16 16
37 35 34 33 32 31 31 31 30 30 29 29 28 27 27 27 27 26 26 25 25 24 23 23 24 24 22 21 19 17 16 16 15 14 15 15 16 17 17 13 7 2 2 3 4 8 12 13 11 11 11 11 13 16 16 16 15 13 13 13 14 16 16 16 16 16 16 16 16 15 15 15 16 16 16 16 16 16 15 15 15 15 15 16 16
37 36 35 34 34 32 32 32 31 31 31 31 30 29 28 28 28 28 27 27 26 24 23 23 24 24 23 22 20 18 15 15 16 15 15 16 16 16 17 17 13 7 2 2 5 8 13 14 12 10 10 10 9 11 11 11 11 11 12 13 15 17 17 18 18 18 19 19 18 17 17 17 17 17 17 17 16 16 15 15 14 14 14 15 15
37 36 35 35 35 34 34 33 33 33 33 33 33 31 30 30 30 29 28 28 27 26 24 24 24 23 24 23 21 19 17 16 15 14 15 16 17 16 16 17 16 11 8 5 5 10 13 13 13 10 8 9 9 9 9 9 10 12 14 15 16 16 16 16 17 18 19 20 20 20 19 19 18 18 18 17 17 16 16 15 16 16 16 16 16
38 37 36 36 36 36 36 35 34 34 35 35 35 34 33 32 32 32 31 30 29 28 26 25 24 24 24 24 22 21 19 18 16 15 15 16 17 17 17 17 16 15 14 9 4 8 11 12 12 10 9 8 9 11 11 12 13 14 16 16 16 16 15 16 17 18 18 19 20 20 21 20 20 19 18 17 17 17 16 16 17 18 18 18 17
38 38 37 37 38 38 38 37 36 36 36 36 36 36 35 35 35 34 33 32 32 30 28 27 26 25 25 25 24 22 20 19 18 17 16 16 17 18 18 18 16 15 15 12 7 7 10 10 10 10 10 10 10 11 12 13 14 15 15 15 16 17 17 18 18 18 18 18 18 19 20 20 20 19 19 18 17 17 17 17 18 19 19 19 19
38 39 38 38 38 39 39 39 38 38 37 37 37 37 37 36 36 35 34 33 33 32 31 29 28 27 26 26 26 24 22 21 20 19 18 18 18 19 18 18 17 15 14 14 11 9 10 11 10 10 11 11 12 12 13 13 13 13 13 13 15 16 17 18 18 17 17 18 18 19 19 19 19 20 20 20 19 18 18 18 19 19 20 20 20
39 39 39 39 39 39 40 40 40 39 38 38 38 38 38 38 37 36 35 35 34 33 32 32 31 29 28 27 27 26 24 23 22 21 20 20 19 19 19 18 17 16 15 15 14 11 11 12 12 11 11 11 12 12 12 12 12 12 14 14 15 16 17 17 18 18 17 18 19 19 20 20 20 20 21 21 21 21 21 20 20 20 20 20 20
39 40 40 40 40 40 40 41 40 40 39 39 38 39 39 39 38 37 37 36 36 35 34 34 32 30 29 29 28 28 26 24 23 21 21 21 21 20 20 19 18 16 15 16 15 13 13 13 13 12 11 11 12 11 11 12 13 15 17 18 18 19 19 19 19 19 19 19 20 20 19 19 19 19 20 20 21 21 21 21 20 20 20 21 20
39 40 40 39 39 40 41 41 41 41 40 40 39 40 40 40 39 39 38 37 36 36 35 34 33 32 31 31 30 28 27 26 24 22 21 22 22 21 20 20 20 18 17 17 18 16 15 15 16 15 13 12 12 12 12 14 16 17 19 20 21 21 21 21 21 21 20 20 21 21 21 19 19 19 19 20 20 21 21 21 21 21 21 21 21
39 39 39 39 39 40 42 42 41 41 40 40 40 40 40 40 40 40 38 38 37 35 35 34 33 33 33 33 32 30 28 27 25 23 22 22 22 21 20 21 21 21 19 19 19 19 18 19 19 18 15 13 14 15 15 16 18 20 21 21 21 22 22 22 22 22 22 22 23 23 23 21 20 21 21 22 22 22 22 22 22 22 21 22 22
39 38 38 39 40 41 43 42 41 41 40 41 41 40 40 40 40 40 38 37 36 35 34 34 34 34 33 33 32 31 30 28 27 25 23 23 23 22 22 22 22 22 21 20 20 20 21 22 22 20 18 17 17 17 17 17 19 21 21 21 21 21 21 22 23 22 21 22 23 23 23 22 22 22 23 23 24 24 24 24 24 23 23 23 23
39 38 39 39 40 41 42 41 40 40 40 40 40 40 40 40 40 39 38 37 36 35 35 34 34 34 33 32 33 32 31 31 29 27 25 24 24 24 24 23 23 23 22 21 21 20 20 21 21 20 19 17 17 19 20 19 19 20 20 20 21 21 20 21 22 21 20 20 21 22 22 20 20 21 22 23 24 24 24 24 24 23 23 23 23
39 39 39 39 39 39 40 40 40 39 39 39 40 40 40 40 39 38 37 36 35 35 35 34 34 34 33 33 34 33 33 33 31 29 28 26 25 25 25 23 23 23 22 22 21 19 19 19 19 18 16 14 17 21 22 20 18 19 19 18 19 21 20 20 20 21 20 19 19 21 21 18 17 19 21 22 21 21 21 21 21 21 20 20 20
39 39 38 38 38 37 38 38 38 38 39 40 41 42 41 40 38 37 36 35 34 34 34 34 34 34 34 34 34 34 34 33 32 30 29 27 26 25 25 24 23 24 24 24 21 19 18 17 17 17 14 14 19 21 20 19 18 20 20 17 18 20 20 20 21 22 20 18 19 21 21 19 18 21 23 22 20 19 20 20 19 19 19 18 19
38 37 37 37 37 38 38 37 37 38 39 41 42 43 42 40 38 37 35 35 34 33 33 32 33 33 34 34 34 33 32 31 30 30 29 28 26 26 25 25 25 26 27 25 22 21 20 18 18 17 15 16 20 20 18 20 21 21 20 18 18 19 18 18 20 22 21 18 18 20 22 22 22 23 24 22 20 20 19 19 19 20 20 20 20
37 36 36 36 37 38 38 37 37 39 41 42 42 42 42 40 38 37 35 34 34 33 33 32 33 33 33 33 32 31 30 29 29 29 29 28 26 25 26 26 26 27 28 26 23 22 21 19 18 17 15 16 18 19 20 22 22 20 19 18 18 18 17 14 15 19 21 20 19 20 23 26 26 25 24 23 22 20 19 18 19 20 21 21 20
36 36 36 37 38 39 38 38 38 40 42 42 41 41 40 40 39 37 36 35 34 34 33 33 33 32 31 31 31 30 30 29 28 28 27 26 25 25 25 26 26 27 26 25 24 23 22 20 18 17 16 15 16 19 21 21 20 18 17 17 16 17 16 14 14 18 21 22 21 21 23 27 27 26 25 24 23 20 18 19 20 21 22 21 21
36 36 37 38 38 38 38 38 39 41 41 40 39 39 38 38 39 38 37 36 35 34 34 34 34 32 30 30 30 29 29 29 27 27 26 26 25 24 24 25 26 27 27 26 25 24 22 21 19 19 18 16 16 18 20 19 18 17 16 16 17 16 16 15 17 20 21 21 21 20 22 25 25 23 23 23 22 20 20 21 21 21 22 23 23
35 37 38 39 39 39 38 38 39 39 39 38 37 37 36 36 37 38 39 37 35 35 34 34 34 33 32 31 30 29 28 27 26 26 26 26 24 24 25 26 27 28 27 27 27 26 24 20 19 19 18 17 17 17 17 16 16 16 15 15 16 16 16 16 17 20 19 20 21 18 17 20 21 20 23 24 21 20 21 22 23 24 26 27 28
38 39 39 39 40 39 39 39 38 37 37 36 35 35 36 36 36 38 39 37 35 34 34 34 34 34 32 31 30 29 28 26 25 24 25 25 24 25 26 26 27 29 29 29 29 29 26 20 18 18 17 16 17 16 14 13 14 14 13 12 13 14 16 17 17 19 19 20 20 15 12 15 17 18 22 23 20 22 24 25 27 28 29 28 26
38 38 38 39 39 39 38 38 37 36 35 33 33 34 34 34 35 37 38 38 35 34 33 33 34 33 31 29 29 28 27 25 23 22 23 23 24 24 25 26 27 28 29 29 27 26 23 20 19 18 15 15 15 14 13 12 11 11 10 11 13 13 15 15 15 17 17 16 17 14 12 14 16 16 20 21 21 25 28 29 28 26 23 21 18
37 38 38 38 38 38 38 38 37 36 33 31 32 32 32 33 35 36 38 38 35 33 33 33 32 31 29 28 27 27 25 23 22 22 22 22 23 23 22 23 23 23 23 22 20 19 18 18 17 16 14 13 12 11 10 9 8 9 10 12 14 13 13 12 10 12 13 13 16 15 12 14 15 16 19 21 22 25 27 27 24 20 17 18 19
38 39 38 37 37 38 38 38 38 35 32 32 32 32 32 33 34 36 37 36 34 32 32 31 29 28 27 26 25 24 23 21 21 21 21 21 21 20 18 18 20 22 21 17 14 14 15 13 12 12 11 11 10 9 8 8 9 11 12 13 12 10 10 9 8 9 11 13 16 14 10 13 16 17 18 19 20 24 25 23 21 20 19 21 22
38 37 36 35 35 36 36 36 37 34 33 33 33 32 31 32 33 35 36 34 32 31 30 28 26 26 26 24 23 21 20 20 20 21 20 19 20 20 17 18 22 23 20 15 12 11 10 9 9 10 10 11 11 10 10 10 11 11 11 10 8 6 6 7 9 9 7 9 13 12 10 14 17 18 18 14 12 17 23 22 21 23 23 23 22
Wind_Direction
216 219 224 229 232 234 237 241 240 236 233 230 230 232 238 244 242 242 245 243 237 238 240 224 262 273 246 216 210 231 239 226 219 214 207 201 200 202 205 210 210 208 206 204 206 204 202 203 200 201 202 202 204 206 203 200 204 208 207 207 208 209 211 212 214 214 217 222 223 222 223 226 228 229 231 232 235 238 240 240 238 239 240 242 242
221 224 229 234 239 240 240 241 238 235 235 233 234 239 245 250 249 252 253 248 238 232 219 204 233 235 209 201 186 186 218 216 215 217 216 211 205 201 202 210 212 210 209 207 207 208 209 207 204 203 203 204 206 207 207 208 209 212 214 214 212 213 215 217 218 218 220 223 226 227 227 230 233 237 240 241 240 241 243 245 244 244 245 247 250
225 230 235 239 243 242 240 238 233 233 235 235 239 243 244 248 253 261 261 255 239 228 218 194 174 164 180 192 175 156 174 198 211 216 220 218 208 199 199 208 214 213 210 209 209 209 213 214 211 209 206 208 209 208 212 217 213 211 218 220 217 217 218 219 221 223 225 226 230 231 232 235 237 240 245 249 251 249 247 247 247 247 248 249 253
227 234 240 243 244 240 237 233 229 230 232 234 239 243 244 246 253 263 261 252 234 228 224 186 160 143 163 181 173 163 152 182 229 230 217 215 210 198 195 204 212 215 211 212 213 212 213 215 217 215 213 214 213 209 215 224 221 212 217 222 220 222 222 222 223 226 229 231 235 235 236 239 241 244 247 250 255 258 258 256 251 251 252 252 252
228 236 241 244 242 238 234 231 230 232 235 236 237 241 247 251 256 263 258 249 239 232 216 181 171 150 186 186 152 145 127 144 224 234 198 198 203 199 196 203 209 210 210 211 215 216 214 216 221 220 219 220 217 215 217 225 228 221 222 228 227 227 229 230 230 228 230 232 236 239 238 240 244 247 250 252 255 259 263 264 261 258 257 256 256
229 237 243 242 240 237 233 232 234 236 239 238 237 243 254 260 261 261 256 248 239 228 204 186 199 260 156 160 131 116 124 144 165 190 182 184 194 197 197 204 207 204 201 204 210 217 217 218 223 224 226 226 223 224 222 224 229 227 229 235 235 232 231 234 236 235 234 235 237 240 240 241 242 244 248 250 251 251 253 255 258 260 260 259 260
230 236 242 239 235 233 229 231 235 236 239 238 241 250 258 261 259 260 259 244 226 211 199 203 227 203 137 149 129 94 114 144 157 173 178 180 187 194 198 201 202 198 193 196 203 212 216 217 222 226 231 233 232 232 231 230 231 231 234 238 239 237 235 237 241 241 242 243 241 243 245 246 246 245 246 247 247 245 244 245 248 254 259 260 261
230 234 238 234 228 227 226 228 233 237 239 239 243 251 257 258 256 260 256 234 219 211 208 218 230 214 156 154 141 101 126 141 157 174 175 174 180 187 194 197 198 196 194 196 199 207 214 216 220 227 233 236 236 235 237 239 236 237 240 244 246 244 243 246 249 249 249 252 251 251 251 252 252 251 252 255 256 256 254 252 249 250 253 256 257
229 233 235 231 225 225 226 227 232 237 240 241 246 251 256 256 254 257 245 223 220 217 210 214 225 233 202 203 275 239 169 156 158 170 169 165 172 180 188 196 199 200 202 204 205 208 217 221 221 227 232 237 243 240 238 238 237 241 242 242 247 246 246 249 253 255 254 255 255 255 257 256 257 258 260 260 261 263 265 264 259 256 255 255 257
229 233 235 232 229 228 227 229 232 237 240 243 248 251 253 250 249 250 231 218 225 218 210 201 207 225 208 223 258 238 164 154 158 167 164 160 163 169 179 190 196 200 204 207 210 214 222 229 226 227 231 234 243 246 243 239 235 243 242 236 240 242 243 246 251 255 255 255 256 258 262 263 264 263 261 260 260 263 268 269 267 263 261 260 260
231 233 236 235 232 230 229 230 234 237 239 241 246 247 245 242 241 237 223 218 224 214 214 209 184 201 197 213 242 231 166 149 154 171 168 159 155 160 168 178 184 190 198 205 209 213 220 230 230 229 232 229 232 242 246 243 235 241 244 239 240 241 241 244 248 252 255 258 258 260 263 264 265 264 260 260 263 265 266 268 269 266 266 266 266
230 231 235 236 234 232 231 232 234 236 237 239 242 241 239 239 235 227 219 217 220 213 210 206 191 192 190 204 225 224 181 154 148 168 174 165 158 162 165 168 173 175 181 188 195 202 206 216 223 223 228 228 228 235 239 242 239 241 245 246 246 241 239 243 247 251 255 258 259 260 263 264 263 263 263 262 263 265 263 264 268 269 271 271 269
228 228 231 234 233 232 230 230 232 234 236 239 242 240 237 233 225 218 217 220 225 212 200 199 201 197 193 210 226 222 193 168 155 165 179 178 169 168 169 170 171 165 164 166 176 186 185 187 196 204 212 218 226 235 242 247 247 248 249 247 244 238 239 243 246 252 256 261 263 264 266 267 264 259 260 260 261 264 264 264 266 267 274 276 268
228 228 229 230 229 228 227 227 230 232 234 236 238 236 226 216 210 211 217 226 229 209 204 215 209 201 191 201 236 230 193 168 164 169 185 187 177 173 180 181 175 167 160 158 165 173 173 175 176 188 194 192 206 222 239 248 243 244 244 239 237 234 232 235 245 256 258 265 271 274 276 277 275 266 263 266 266 266 267 269 270 268 269 270 264
230 230 229 228 228 227 227 228 230 231 230 229 229 223 212 205 205 212 220 223 224 217 217 217 203 191 170 146 235 202 153 139 146 163 187 190 183 180 189 189 182 178 168 157 155 163 175 183 181 188 190 186 193 190 184 164 128 143 204 215 238 245 237 238 254 265 265 267 270 277 286 289 287 279 270 276 279 276 274 276 278 275 270 267 262
232 232 229 229 229 228 229 230 230 230 227 227 225 214 205 204 206 214 220 215 215 218 216 216 215 199 160 108 349 126 177 218 112 137 181 188 188 189 193 191 187 186 175 160 149 154 183 191 194 204 198 187 174 160 145 116 90 80 83 90 94 129 187 223 252 45 58 292 291 294 303 306 299 287 276 280 286 285 286 289 292 289 285 281 274
233 233 231 230 230 230 231 232 232 228 225 227 225 213 205 208 210 212 212 210 212 214 212 217 222 213 189 151 103 113 235 209 105 116 173 183 191 194 194 193 194 190 181 173 164 157 167 180 202 226 227 213 166 154 148 129 105 93 81 67 61 63 75 73 64 62 60 55 42 30 24 22 19 0 335 319 309 294 292 295 294 292 290 291 291
234 232 231 230 230 231 231 232 232 226 223 227 223 213 208 211 215 212 209 209 212 214 213 214 215 218 217 211 217 228 195 163 108 129 175 185 197 198 197 197 198 194 186 185 183 175 175 181 201 231 247 249 204 175 157 129 115 107 79 52 38 28 29 37 37 37 33 31 27 19 13 6 4 2 357 353 345 334 324 317 309 302 295 295 298
234 230 229 230 230 231 231 232 231 226 224 224 218 212 212 216 217 213 210 210 214 217 213 208 208 216 221 221 235 211 179 167 152 159 158 197 208 200 200 200 199 199 196 198 196 189 191 193 203 219 225 219 170 45 86 132 124 116 78 43 37 27 20 12 9 10 7 7 6 2 358 351 343 338 337 339 342 342 340 335 332 327 317 312 310
232 228 227 229 230 230 230 230 228 226 225 220 214 213 214 216 215 211 211 213 219 222 213 205 208 212 209 207 204 176 176 180 183 175 148 137 189 195 203 203 203 202 203 206 204 203 210 209 211 215 212 208 184 125 32 75 162 174 271 301 337 355 356 351 349 350 350 348 348 348 347 344 339 329 324 326 331 334 334 333 334 333 331 329 325
229 226 225 228 230 229 229 228 227 226 223 217 213 213 213 211 210 211 212 215 220 222 217 211 212 214 209 203 193 174 173 179 185 183 163 149 175 192 193 199 210 212 208 209 209 212 224 228 227 225 220 224 215 202 235 265 254 260 276 289 300 315 326 329 331 333 333 330 330 335 339 339 338 333 326 324 325 327 327 327 327 328 331 332 331
225 224 225 227 228 227 227 226 226 224 219 214 213 214 213 210 210 213 216 219 220 219 221 220 219 219 213 206 200 185 171 163 180 183 170 160 169 186 181 181 205 217 213 212 213 216 226 233 235 236 233 234 236 236 243 258 269 277 285 292 296 301 308 312 316 320 320 319 318 321 329 333 334 334 332 329 327 326 324 322 319 321 326 328 329
224 223 224 225 226 225 225 225 224 220 215 213 215 216 214 213 216 219 221 223 222 219 221 223 223 222 217 213 212 205 192 185 188 184 175 161 154 167 182 185 200 213 214 216 217 218 225 233 238 241 240 239 242 248 253 259 266 273 279 280 284 289 293 298 302 307 312 314 314 315 319 324 325 328 329 327 325 324 323 322 318 315 316 320 322
222 222 223 222 223 223 223 222 220 217 214 215 218 218 216 217 219 222 222 222 222 221 220 219 219 218 218 217 220 223 217 209 198 189 186 187 180 169 167 180 201 212 215 218 220 222 226 233 241 244 244 245 247 251 257 262 264 268 273 274 278 283 286 290 293 297 301 306 310 312 314 316 316 316 318 318 316 315 315 316 317 315 312 310 310
219 221 222 220 221 221 220 219 218 215 214 216 218 218 217 217 218 221 222 221 222 223 221 219 218 217 218 218 222 228 227 225 219 204 198 195 185 170 158 167 190 200 211 218 221 226 230 235 244 247 247 247 250 254 257 263 267 268 272 274 278 281 284 288 291 293 297 299 302 305 309 312 312 310 310 310 309 307 306 305 305 307 307 306 304
219 221 222 220 220 221 219 219 218 216 214 214 217 217 216 216 219 222 222 223 225 226 225 223 220 218 218 220 224 227 227 228 227 220 211 197 184 172 159 146 182 191 204 218 220 227 233 239 245 248 250 252 254 258 259 262 267 269 271 275 280 285 289 292 294 295 296 296 298 299 302 305 306 307 306 306 305 303 302 300 299 299 299 300 300
221 222 222 220 220 220 219 220 218 216 214 214 215 216 216 217 221 223 224 226 227 229 230 227 223 220 219 222 225 227 227 224 224 227 226 213 198 189 179 165 172 242 249 239 232 232 233 240 245 245 250 256 255 256 259 263 267 270 269 272 283 290 292 293 295 297 298 297 296 296 298 300 300 301 301 302 302 301 299 297 296 295 294 294 294
221 222 222 220 220 219 219 220 219 218 216 215 216 217 216 217 220 223 225 225 227 231 232 229 225 223 221 223 224 225 225 224 225 230 231 225 215 207 200 191 185 208 288 269 256 239 232 235 237 237 245 256 254 249 253 262 267 267 266 273 285 289 289 290 290 293 296 297 296 293 293 295 296 297 297 298 299 299 299 297 295 294 293 293 293
221 222 221 220 219 219 219 220 220 220 219 218 218 218 217 218 220 223 223 224 228 231 231 228 226 225 225 225 225 226 226 227 228 229 228 224 219 216 214 209 201 188 183 238 253 237 229 231 231 231 239 250 248 235 239 254 261 263 267 275 282 284 286 288 289 291 294 296 297 295 293 293 294 294 294 294 294 295 297 297 296 294 293 294 294
220 221 221 219 218 218 220 220 220 221 222 221 220 220 221 222 223 225 225 226 228 229 229 228 226 227 227 226 226 225 225 228 229 229 225 221 222 221 220 219 216 207 196 199 240 237 225 223 226 227 232 238 231 220 224 239 248 257 266 271 277 283 290 293 294 295 296 297 299 299 298 298 298 298 297 296 294 293 295 296 294 292 290 291 292
220 220 220 218 217 217 219 220 221 222 223 222 223 222 223 225 226 226 228 228 229 229 228 228 227 228 229 228 226 225 227 232 232 231 227 224 227 226 221 220 221 224 222 209 218 241 226 219 223 225 226 227 218 213 221 233 245 257 266 273 280 287 294 297 298 299 298 298 299 300 301 301 302 304 305 304 302 299 296 294 293 290 288 287 288
219 219 220 219 218 218 218 220 221 221 222 223 223 224 224 226 228 229 229 228 228 229 229 229 228 229 230 229 228 226 227 231 231 229 228 227 228 227 224 224 223 231 233 218 210 239 235 226 225 222 220 222 223 225 235 245 253 263 270 277 285 289 293 296 297 299 299 300 300 299 299 298 299 301 303 305 306 304 300 295 293 292 290 288 287
219 219 221 221 219 219 219 220 220 221 222 222 223 224 225 227 228 229 228 227 228 230 230 229 229 229 230 230 229 227 227 230 230 231 231 230 229 226 226 228 227 229 231 224 222 237 241 234 231 229 229 234 242 248 254 259 262 268 274 282 288 291 293 295 295 295 297 300 302 302 301 299 298 298 300 302 303 303 303 300 298 296 294 293 291
220 220 222 221 220 219 218 220 220 221 222 223 224 224 225 226 226 226 226 226 228 229 229 230 229 229 230 231 230 228 228 232 234 234 234 231 228 227 227 229 229 229 230 230 228 233 242 244 243 245 244 247 256 261 266 272 276 279 283 288 293 295 296 296 294 293 294 298 301 301 301 300 300 300 301 301 301 301 301 301 300 298 296 295 294
221 221 222 220 219 218 218 219 220 221 222 223 224 224 225 225 224 225 226 227 229 230 229 229 228 228 230 230 230 228 228 233 235 236 236 232 229 229 228 230 232 233 234 236 233 234 246 255 258 260 256 257 266 273 279 284 284 286 288 292 296 297 298 299 297 296 296 299 301 299 296 295 296 298 298 298 298 298 299 299 298 296 295 294 293
220 220 220 219 218 217 217 219 219 220 222 223 224 225 225 225 225 226 227 227 230 231 230 229 228 228 230 230 231 230 229 232 236 237 236 233 230 229 229 230 232 236 239 240 239 240 246 256 265 270 270 274 282 284 283 283 285 288 291 294 295 296 297 298 298 299 301 303 303 302 299 298 297 297 297 296 296 297 298 298 297 295 293 292 291
218 219 218 217 217 217 218 219 220 220 221 222 224 225 225 226 227 227 228 229 230 231 231 231 229 230 231 232 233 232 231 233 235 237 236 231 228 228 230 232 234 237 241 243 244 244 244 250 259 266 273 280 286 285 282 285 290 293 293 293 293 292 293 296 297 298 300 302 305 307 307 307 306 304 301 298 297 298 300 300 299 298 296 294 293
216 217 216 216 217 218 220 220 221 221 222 223 224 225 226 226 227 228 228 229 231 232 232 232 232 233 233 233 235 235 234 234 234 234 233 230 228 231 234 237 237 237 240 245 248 246 246 248 253 261 269 274 279 282 284 289 291 292 293 294 294 289 286 290 294 295 294 298 304 310 311 312 312 309 304 302 300 300 300 300 299 298 297 296 296
215 215 216 217 218 220 221 221 222 223 223 223 224 225 226 226 226 227 227 228 230 232 233 233 234 235 234 235 237 237 236 237 236 235 233 230 231 235 238 241 240 238 240 247 250 248 248 249 250 255 263 270 281 289 292 292 289 288 290 290 291 292 289 286 289 291 291 295 303 309 309 310 313 312 308 304 302 301 301 300 299 299 298 297 296
215 215 216 218 219 221 222 222 223 223 223 223 224 225 226 226 226 226 226 227 229 231 233 235 235 236 237 237 239 239 239 239 238 238 238 236 236 238 240 242 242 241 244 248 250 246 245 246 248 254 262 273 284 287 288 289 287 290 293 287 283 290 292 288 287 289 291 295 303 307 308 308 312 315 311 305 303 304 304 303 303 304 305 304 303
215 216 217 218 219 221 222 223 223 223 224 224 224 224 225 225 225 226 227 228 229 231 233 235 236 237 238 239 241 241 241 241 240 241 241 241 242 242 242 241 240 242 245 248 246 241 239 240 245 254 262 267 270 273 279 287 290 295 298 290 280 285 289 288 289 293 294 297 304 307 309 311 313 315 313 307 304 306 305 305 306 307 308 306 303
215 215 216 218 219 221 222 223 223 223 224 225 226 226 225 224 224 226 227 228 230 232 233 234 236 237 239 240 241 241 242 243 242 241 242 242 243 246 246 243 240 241 244 244 242 238 236 236 241 250 256 259 264 272 285 294 297 298 298 291 285 287 288 287 292 299 301 303 306 307 308 312 313 314 314 311 307 306 303 302 304 305 305 303 301
214 214 215 217 219 222 223 223 223 224 226 227 227 227 226 226 225 226 227 229 231 232 234 235 236 238 238 240 241 241 241 241 241 242 242 242 242 244 245 245 245 247 245 242 239 237 237 236 239 245 250 257 270 283 293 297 299 301 299 294 290 288 287 285 290 298 303 306 307 303 305 310 312 312 314 312 308 305 301 299 300 301 302 302 301
213 213 214 216 219 221 222 224 225 226 228 228 228 228 227 226 226 227 228 229 231 233 234 235 238 238 238 240 241 240 240 241 241 242 242 241 242 243 244 247 249 248 245 243 240 235 234 236 238 240 246 259 276 286 292 297 299 299 298 296 293 289 287 283 280 289 301 306 303 300 302 307 310 312 312 309 305 302 298 297 298 299 299 299 297
212 213 215 216 219 220 221 222 225 228 230 229 228 228 227 226 227 228 229 230 232 233 234 236 238 237 237 239 241 240 241 241 240 241 242 242 243 243 243 245 246 244 243 244 242 237 234 235 235 237 246 258 270 281 290 294 293 294 295 296 296 293 289 284 283 290 299 302 300 298 299 304 309 310 307 304 303 302 299 298 298 296 295 294 292
211 213 215 216 219 220 220 222 225 228 230 230 229 228 227 227 229 230 230 231 232 233 235 237 239 238 238 238 239 241 242 241 238 240 242 241 240 239 237 237 241 244 242 241 239 237 235 231 233 241 250 260 272 285 291 290 287 293 297 297 297 295 291 290 292 295 299 300 300 298 294 301 309 307 301 302 304 303 300 297 295 294 293 294 293
212 214 215 216 219 219 221 222 225 228 230 229 229 228 227 228 230 231 231 230 230 233 235 237 240 241 239 238 239 242 242 242 242 242 243 241 238 235 233 234 240 244 243 243 241 236 231 228 238 251 261 273 284 289 288 284 285 291 296 297 299 298 297 296 295 295 297 299 300 296 285 297 309 304 299 304 306 300 297 295 294 296 296 296 296
213 214 215 217 218 219 221 222 224 227 229 229 229 228 227 229 230 230 230 228 229 231 233 237 241 242 239 237 239 242 242 243 244 243 243 240 236 234 233 235 238 240 242 242 240 236 232 231 239 253 270 283 286 283 281 282 284 288 293 297 299 299 299 296 293 295 298 300 303 299 283 291 307 302 296 302 302 297 297 298 299 301 301 301 303
211 213 215 216 218 219 220 221 223 225 226 226 228 228 227 229 228 227 227 227 227 229 232 237 239 240 240 240 240 241 242 242 242 242 240 237 235 234 230 229 233 237 236 232 227 231 236 233 239 258 278 283 276 272 274 274 277 287 292 293 295 295 293 290 287 294 302 309 312 305 283 285 300 297 292 297 299 297 299 303 307 309 310 312 314
211 213 214 215 217 219 220 220 222 222 222 224 227 227 227 228 227 225 225 224 224 227 231 236 238 239 242 243 240 239 240 242 241 240 237 235 232 224 216 226 242 243 237 230 224 231 238 240 252 269 275 270 265 264 268 274 285 290 288 287 289 283 275 273 276 289 302 309 312 305 276 279 295 295 293 298 299 298 302 309 314 316 316 318 317
211 213 214 215 217 218 219 220 221 220 220 223 225 225 227 228 225 224 223 220 222 225 228 232 235 238 241 241 238 236 239 241 240 237 236 235 227 218 220 239 246 239 231 227 223 229 241 255 268 270 263 259 261 268 280 290 293 290 286 285 280 267 268 280 287 291 292 301 312 309 282 281 295 298 297 298 295 299 305 308 312 315 317 318 315